STARLINK-34898

Last updated on Mon Oct 20 2025 00:02:08 GMT+0000 (Coordinated Universal Time)

1 65895U 25224P 25292.25002315 -.01224481 00000+0 -54311-2 0 9995 2 65895 53.1508 313.3705 0001083 81.0421 101.3719 15.86150877 3156
UTC large
Height (km)
Speed (km/s)
/
Latitude / Longitude
Inclination (degrees)
Orbital Period (minutes)
Azimuth
Elevation
Range (km)
Doppler Factor

Next 0 passes for location: London (51.5072 / 0.1276)

Sorry there are no passes over London.